Regional Weather Roundup
Issued by NWS

Home | Current Version | Previous Version | Text Only | Print | Product List | Glossary Off
Versions: 1 2 3 4 5 6 7 8 9 10 11 12 13 14 15 16 17 18 19 20 21 22 23 24 25 26 27 28 29 30 31 32 33 34 35 36 37 38 39 40 41 42 43 44 45 46 47 48 49 50

000
ASUS43 KLOT 031408
RWRIL

ILLINOIS REGIONAL WEATHER ROUNDUP
NATIONAL WEATHER SERVICE CHICAGO/ROMEOVILLE IL
900 AM CDT FRI JUL 03 2015

NOTE: "FAIR" INDICATES FEW OR NO CLOUDS BELOW 12,000 FEET WITH NO
SIGNIFICANT WEATHER AND/OR OBSTRUCTIONS TO VISIBILITY.

* THESE STATIONS ARE NOT UNDER NWS QUALITY CONTROL. THEY ALSO MAY NOT
  REPORT WEATHER SUCH AS PRECIPITATION OR FOG.

ILZ001-002-007-009-015-016-024-031500-
NORTHWEST ILLINOIS

CITY           SKY/WX    TMP DP  RH WIND       PRES   REMARKS
MOLINE         CLOUDY    64  55  72 CALM      29.99R
STERLING*      PTSUNNY   64  55  72 E7        29.99S
SAVANNA*       MOSUNNY   62  53  74 NE5       30.00R
$$

ILZ003-004-008-010-011-017-018-031500-
NORTH CENTRAL ILLINOIS

CITY           SKY/WX    TMP DP  RH WIND       PRES   REMARKS
ROCKFORD       CLOUDY    66  55  67 SE5       30.00S
FREEPORT*      MOSUNNY   58  54  84 CALM      30.01F
ROCHELLE*      PTSUNNY   63  56  78 CALM      30.00S
DE KALB*       MOSUNNY   63  56  79 E5        30.00S
PERU*          MOSUNNY   65  56  74 E7        29.99S
$$

ILZ005-006-012>014-019>023-031500-
NORTHEAST ILLINOIS

CITY           SKY/WX    TMP DP  RH WIND       PRES   REMARKS
CHICAGO-OHARE  PTSUNNY   66  56  70 E3        29.98S
CHICAGO-MIDWAY PTSUNNY   69  58  67 VRB3      29.98S
AURORA         MOSUNNY   67  56  67 E6        29.99S
LANSING*       CLOUDY    65  54  66 SE3       29.98S
JOLIET*        PTSUNNY   67  57  70 E3        29.98S
WAUKEGAN       PTSUNNY   64  56  75 NE6       29.99S
DUPAGE AIRPORT MOSUNNY   66  55  67 E3        29.99R
KANKAKEE*      CLOUDY    67  58  71 E8        29.97S
WHEELING       MOSUNNY   66  56  70 E3        30.00S
MORRIS*        PTSUNNY   66  57  74 E5        29.97R
ROMEOVILLE*    PTSUNNY   67  55  65 E7        29.99S
NORTHERLY ISL    N/A     64  57  78 NE6         N/A
$$

LMZ740>746-031500-
SOUTHERN LAKE MICHIGAN

STATION/POSITION SKY/WX   TEMP    WIND        PRES    VSBY  WAVE
                          AIR SEA DIR/SP/G                  HT/PER
                          (F)     (DEG/KT/KT) (MB)    (MI)  (FT/S)
HARRISON CRIB              61      30/  3/  4   N/A
BURNHAM HARBOR             65      30/  3/  5   N/A
CALUMET HARBOR             63      40/  4/  5   N/A
BURNS HARBOR               66     100/  8/ 10 1015.6S
MICHIGAN CITY              64     100/  6/  8   N/A
MICHIGAN CITY 6N           63 63   80/  4/  6   N/A           1/ 4
ST. JOSEPH                 63 62                N/A           1/ 4
$$

ILZ025>027-034>036-040-047-049-050-058-095>099-031500-
WEST-CENTRAL ILLINOIS

CITY           SKY/WX    TMP DP  RH WIND       PRES   REMARKS
QUINCY         SUNNY     66  61  84 E5        29.95S
GALESBURG*     PTSUNNY   64  56  77 NE3       29.98R
MACOMB*        PTSUNNY   65  60  82 NE8       29.99R
JACKSONVILLE*  PTSUNNY   66  61  84 NE5       29.95S
PITTSFIELD*    MOSUNNY   68  62  79 NE6       29.96S
$$

ILZ028>032-037-038-041>044-048-051>054-059>061-031500-
CENTRAL ILLINOIS

CITY           SKY/WX    TMP DP  RH WIND       PRES   REMARKS
PONTIAC        CLOUDY    66  60  80 E6        29.97S
BLOOMINGTON    CLOUDY    64  60  87 NE8       29.97R
DECATUR        PTSUNNY   69  62  78 NE8       29.93R
PEORIA         MOSUNNY   66  57  72 NE8       29.96S
LACON*         MOSUNNY   66  56  70 CALM      29.97R
LINCOLN*       PTSUNNY   67  60  78 NE7       29.95S
SPRINGFIELD    PTSUNNY   67  61  81 NE6       29.94S
TAYLORVILLE    PTSUNNY   66  63  88 N6        29.93S
$$

ILZ033-039-045-046-055>057-062-063-031500-
EAST-CENTRAL ILLINOIS

CITY           SKY/WX    TMP DP  RH WIND       PRES   REMARKS
CHAMPAIGN      PTSUNNY   68  60  75 NE9       29.93R
DANVILLE*      CLOUDY    66  60  80 NE6       29.91S
RANTOUL*       CLOUDY    70  61  72 E12       29.94S
MATTOON        MOSUNNY   69  64  84 NE7       29.90S
PARIS*         PTSUNNY   68  63  86 NE9       29.91F
$$

ILZ079-100>102-031500-
SOUTHWEST ILLINOIS

CITY           SKY/WX    TMP DP  RH WIND       PRES   REMARKS
ALTON          SUNNY     68  68 100 N6        29.92S
BELLEVILLE     SUNNY     72  69  88 VRB5      29.89S
CAHOKIA*       SUNNY     73  64  73 N7        29.90S
SPARTA*        SUNNY     71  65  83 NW3       29.90S
$$

ILZ064>066-069>071-074>076-080>082-084>086-088>090-092>094-031500-
SOUTH-CENTRAL ILLINOIS

CITY           SKY/WX    TMP DP  RH WIND       PRES   REMARKS
CARBONDALE     SUNNY     73  67  81 NW6       29.88R
CAIRO*         MOSUNNY   74  68  81 CALM      29.89R
EFFINGHAM*     SUNNY     72  64  75 CALM      29.91S
MARION         MOSUNNY   73  68  83 N6        29.89R
MT. VERNON     SUNNY     72  64  78 NE7       29.88S
CENTRALIA*     SUNNY     70  64  80 N3        29.89S
SALEM*         SUNNY     73  66  79 N3        29.89S
METROPOLIS*    MOSUNNY   74  73  96 CALM      29.89R
$$

ILZ067-068-072-073-078-083-087-091-031500-
SOUTHEAST ILLINOIS

CITY           SKY/WX    TMP DP  RH WIND       PRES   REMARKS
LAWRENCEVILLE  CLOUDY    73  67  81 NE8       29.87S
FLORA*         MOSUNNY   72  67  83 NE5       29.88F
FAIRFIELD*     CLOUDY    73  69  89 N3        29.86S
HARRISBURG*    SUNNY     74  71  91 NW5       29.88R
ROBINSON*      CLOUDY    71  66  84 NE8       29.89S
CARMI*         CLOUDY    72  66  80 NW6       29.86S HAZE
$$

ABBREVIATIONS USED IN REMARKS
   TC - TEMPERATURE IN CELSIUS
  WCI - WIND CHILL INDEX
   HX - HEAT INDEX
  VSB - VISIBILITY
$$




USA.gov is the U.S. government's official web portal to all federal, state and local government web resources and services.